Commit Graph
100 Commits
Author SHA1 Message Date
Kris Maglione 842dd61f4c Add [c]:toolbaropen[c], [c]:toolbarclose[c], and [c]:toolbartoggle[c]. 2009-07-21 22:18:15 -04:00
Kris Maglione a7de8b8cd0 Add favicons to :ba and :fo 2009-07-21 14:48:40 -04:00
Kris Maglione 773814c985 Make :ba and :fo generally more consistent and less annoying. 2009-07-21 14:48:39 -04:00
Kris Maglione bc5c8fd72d More selective :ext* completion filtering. 2009-07-08 13:27:40 -04:00
Kris Maglione d7e8bf1543 Add :extoptions command 2009-07-08 13:20:27 -04:00
Kris Maglione 6d7c247eac Remove liberator.log from addMap 2009-07-02 11:00:40 -04:00
Kris Maglione 3628ff8803 Fix 'hinttags'. 2009-06-28 23:57:24 -04:00
Kris Maglione 645c446470 Don't save ex commands to history while feeding keys. 2009-06-28 16:57:55 -04:00
Kris Maglione c4e9e414be Add PrivateMode autocommand. Add -js flag to :au 2009-06-28 15:14:23 -04:00
Kris Maglione 7c7710b23d Cleanup default 'hinttags' definition a bit 2009-06-28 14:46:23 -04:00
Kris Maglione 55164325df Don't save storage objects while in private mode, restore them on exit. 2009-06-28 14:37:23 -04:00
Kris Maglione c2e18373ab Don't use Cc in common/content/help.js; it's not defined there. 2009-06-21 12:07:03 -04:00
Kris Maglione 8a34f5f60d Revert "Remove unneeded sleep const in Cache."
The bookmark cache is not window specific, and when the first window
disappears, so too does its liberator object.

This reverts commit 4f0154de457464ac7ffa64a6e9a7076e8af8964d.
2009-06-21 11:55:34 -04:00
Kris Maglione d12f77e347 Revert "Undo unacknowledged damage in penultimate commit."
This reverts commit b1455b31491b4443a4789b91ca3d172d55c1b424.
2009-06-06 23:50:26 -04:00
Kris Maglione 83d7e30b5d Petty makefile changes. 2009-06-06 23:40:17 -04:00
Kris Maglione f33100d579 Undo unacknowledged damage in penultimate commit. 2009-06-06 23:39:21 -04:00
Kris Maglione 8ac6321a1c Fix createEvent/init*Event insanity. 2009-06-06 14:47:34 -04:00
Kris Maglione 4b46d967bd Fix chrome://liberator/content/buffer.js:1797: TypeError: win.document.body is null 2009-06-06 14:46:30 -04:00
Kris Maglione 97987ef0f5 Specify sh rather than bash in make_jar.sh shebang line. Fix FIXME. 2009-06-06 10:14:47 -04:00
Kris Maglione 5e760406ab Fix #283, etc. 2009-05-30 13:29:17 -04:00
Kris Maglione 311affb871 Fix stupid idiosyncratic idiosyncrasy: RegExp literals are not like array literals—they always return the same object. Remove some dead code. 2009-05-29 14:32:50 -04:00
Kris Maglione 5831b652f9 Fix <C-v> 2009-05-28 17:38:12 -04:00
Kris Maglione 474ce30ada Minor cleanup/we like symlinks. 2009-05-28 15:03:47 -04:00
Kris Maglione 8d5fc6faea Update TODO. 2009-05-28 15:02:21 -04:00
Kris Maglione 9b49a41cba NEWS formatting. 2009-05-27 19:10:14 -04:00
Kris Maglione 6055c8a77b Add some rough documentation for config.js properties. 2009-05-25 12:10:22 -04:00
Kris Maglione 7f90cdcb6f Fix idiosyncratic module loading bug. 2009-05-25 11:19:13 -04:00
Kris Maglione ce120a7f9d Add to TODO, etc. 2009-05-23 21:24:57 -04:00
Kris Maglione b8aab050e9 Remove some config.name checks. Add configbase module. 2009-05-23 21:10:32 -04:00
Kris Maglione 16b8af74d1 Remove some config.name checks. Add configbase module. 2009-05-23 21:09:21 -04:00
Kris Maglione 955ee4185b Fix things like ":map :", ":map +", but not things like ":map <Plus>". Ideas? 2009-05-22 22:18:10 -04:00
Kris Maglione 36f6ff463f Store canonical names for all bound keys. 2009-05-22 22:12:11 -04:00
Kris Maglione fa16e09a9a Don't setcomm /dev/null <(js -Cv180 options.js |& grep .) browser.startup.page on startup. 2009-05-22 17:01:23 -04:00
Kris Maglione 68b75aa5c5 Fix <u>. 2009-05-22 16:58:00 -04:00
Kris Maglione b74df73c85 More sanity in completion changes in last commit. 2009-05-22 13:59:10 -04:00
Kris Maglione e9fc3327ed Make :undo a bit saner. Add TODO about config.name checks. 2009-05-22 13:55:22 -04:00
Kris Maglione d1241eb346 Merge branch 'master' of kmaglione@git.vimperator.org:/git/vimperator/liberator 2009-05-19 13:06:48 -04:00
Kris Maglione 43537025c6 Some esthetic and practical changes to modes and a couple of completion functions. 2009-05-05 17:23:04 -04:00
Kris Maglione 01a8844d96 Revert "Fix #258: :set urlseparator= results in infinite loop"
This reverts commit e0f50f4eef07670f5c4ece8496785f6683236dc8.
2009-05-01 17:49:41 -04:00
Kris Maglione dbf60914ab Add 'fileencoding' 2009-05-01 15:19:35 -04:00
Kris Maglione e5dc623247 Fix #258: :set urlseparator= results in infinite loop 2009-05-01 14:26:23 -04:00
Kris Maglione 324597c8a7 Fix completion. 2009-04-29 20:29:14 -04:00
Kris Maglione 2578a77f52 Hack... 2009-04-29 17:34:22 -04:00
Kris Maglione c64cd9e1af Don't flush event queue in feedkeys loop. 2009-04-28 14:28:14 -04:00
Kris Maglione 9aec9f3e6a Fix #243 2009-04-24 19:27:06 -04:00
Kris Maglione 2f753b6d27 Fix #247 2009-04-22 13:15:56 -04:00
Kris Maglione 63360ac6a3 Fix 9b347a8b11e3f9d2b1ffa2391b1cc93bc5997fef (contentEditable) 2009-04-15 18:34:50 -04:00
Kris Maglione 8cd587b496 Fix #212 2009-04-15 18:30:30 -04:00
Kris Maglione 3d8c17574a Merge branch 'master' of kmaglione@git.vimperator.org:/git/vimperator/liberator 2009-04-15 16:31:37 -04:00
Kris Maglione f3f70d5cb8 General cleanup related to last commit. 2009-04-15 16:31:32 -04:00
Kris Maglione df5b66d838 Add 'encoding' 2009-04-13 12:22:17 -04:00
Kris Maglione 5231ce880f Validate 'hinttags' and 'extendedhinttags' 2009-04-13 08:42:06 -04:00
Kris Maglione 93df18885a Document incompatibility of go=l and go=r 2009-04-07 16:32:18 -04:00
Kris Maglione 31ca8391b9 Only apply tab binding if tab numbers are enabled. 2009-04-07 15:45:26 -04:00
Kris Maglione 323f3ab175 Fix template.highlightURL 2009-04-06 16:42:48 -04:00
Kris Maglione 3c22453d31 Add horrifically mangled, unicode-aware asciidoc. 2009-03-30 20:16:45 -04:00
Kris Maglione 56da39319b Fix config.focusChange check. 2009-03-30 11:00:38 -04:00
Kris Maglione dfe061db6f Change ted's licence block in template.js 2009-03-30 01:28:03 -04:00
Kris Maglione ff9b9b3d2f Change xulmus's id to xulmus@vimperator.org before it affects too many users. 2009-03-30 01:23:00 -04:00
Kris Maglione 3a60d9e530 Finish this ridiculously botched merge. 2009-03-30 01:20:18 -04:00
Kris Maglione 2a88d8a3bf Revert "Fix some zi/zo issues."
This reverts commit b39be7b367528d9a86380c3ec5c2a6fcafd2cd22.
2009-03-30 01:19:29 -04:00
Kris Maglione 5f27bf99da Fix some zi/zo issues. 2009-03-30 01:19:11 -04:00
Kris Maglione 7e068d4f9e Fix some zi/zo issues. 2009-03-30 01:16:39 -04:00
Kris Maglione a8f41faf4e Merge. 2009-03-30 01:14:46 -04:00
Kris Maglione cf57844986 Get rid of some 'config.name' checks in the common tree. These should all, ideally, go. 2009-03-22 02:25:05 -04:00
Kris Maglione c35cca159f Merge branch 'master' of kmaglione@git.vimperator.org:/git/vimperator/liberator 2009-03-21 13:43:43 -04:00
Kris Maglione 6c4a4bbae8 Merge branch 'xulmus' of kmaglione@git.vimperator.org:/git/vimperator/liberator 2009-03-18 03:36:22 -04:00
Kris Maglione ed79b24a01 Merge. 2009-03-12 22:05:38 -04:00
Kris Maglione 93f59df6e7 Fix some bugs---which bugs, I have no idea. 2009-03-12 22:00:46 -04:00
Kris Maglione c9c708f636 Fix some bugs, generally. 2009-02-09 16:18:24 -05:00
Kris Maglione d99be763ec Merge branch 'master' of kmaglione@git.vimperator.org:/git/vimperator/liberator 2009-02-05 10:09:07 -05:00
Kris Maglione 379e44a69b Sort buffer completions numerically. 2009-01-30 14:59:14 -05:00
Kris Maglione 70022ff0af Stricter number option parsing (and comment out some dump statements) 2009-01-28 09:15:26 -05:00
Kris Maglione a29e5246d1 Fix gF for URIs with fragment identifiers 2009-01-24 01:13:23 -05:00
Kris Maglione 86d1d34a64 Makefile 2009-01-24 01:12:53 -05:00
Kris Maglione dc0bf00e0a Formatting 2009-01-24 00:47:54 -05:00
Kris Maglione 3487b8d0d9 Last commit 2009-01-24 00:46:03 -05:00
Kris Maglione 3a4da78529 Revert "In delmarks, change let variable name to prevent namespace-related error (bug #126)."
This reverts commit f6eb37e82c0419cdc62c1a781b64d30148024a58.
2009-01-24 00:45:01 -05:00
Kris Maglione 0d3ceb8c98 Merge branch 'master' of kmaglione@git.vimperator.org:/git/vimperator/liberator 2009-01-21 15:09:38 -05:00
Kris Maglione 3b6c0a2428 Remove last reference to T2T from Makefile.doc. 2009-01-21 15:09:29 -05:00
Kris Maglione 91c5485c42 Fix LANG setting in Makefile.doc. Remove extra indentation in messages. 2009-01-21 14:53:12 -05:00
Kris Maglione eb88d7ea0b Sorry, stashed changes including:
Change util.range to accept an increment as the third argument.
    Sanitize Makefile.doc
2009-01-21 03:41:43 -05:00
Kris Maglione 347938bfca Merge branch 'master' into vimperator-2.1
Conflicts:
	vimperator/NEWS
2009-01-21 03:40:04 -05:00
Kris Maglione 050cd4b2e4 Make [count]<C-n> behave as expected. 2009-01-21 03:37:40 -05:00
Kris Maglione 4d07a8b47f Cleanup last patch 2009-01-20 23:40:05 -05:00
Kris Maglione 7f305e8ba4 Allow extra args to be bassed to completion.addUrlCompleter 2009-01-19 00:39:35 -05:00
Kris Maglione 207913e49a s/Itarator/Iterator/ 2009-01-18 17:24:51 -05:00
Kris Maglione cead5e3230 Merge branch 'master' of kmaglione@git.vimperator.org:/git/vimperator/liberator 2009-01-18 14:44:51 -05:00
Kris Maglione 211e68f8d3 Revert "Again removed explicit numbering in asciidoc help files."
This reverts commit a401e3ebf34c964ca508c189e1daf9b0b18e57b9.

Explicit numbering is easier to read, and will likely be required if and when
we switch to Vim's help format.
2009-01-17 23:45:50 -05:00
Kris Maglione 53f33e0561 Allow ` as local mark 2009-01-17 23:43:29 -05:00
Kris Maglione 74256da392 Die on unclosed quote 2009-01-17 02:51:18 -05:00
Kris Maglione e4cd0611f9 Merge branch 'master' into vimperator-2.1 2009-01-15 15:46:15 -05:00
Kris Maglione bd881e062b Small fixes for recent commits. 2009-01-15 15:44:21 -05:00
Kris Maglione fbcaeaded1 Merge branch 'master' into vimperator-2.1
Conflicts:
	common/content/io.js
	vimperator/locale/en-US/starting.txt
2009-01-15 03:14:08 -05:00
Kris Maglione 0b682ef42b Fix buffer.getCurrentWord when the selection is collapsed and the word has punctuation. 2009-01-14 23:26:40 -05:00
Kris Maglione df2443d67c Merge branch 'master' of kmaglione@git.vimperator.org:/git/vimperator/liberator 2009-01-14 21:01:17 -05:00
Kris Maglione 8311505b61 Merge branch 'master' of kmaglione@git.vimperator.org:/git/vimperator/liberator 2009-01-14 14:08:41 -05:00
Kris Maglione 00470a05b0 Generally insignificant aesthetic changes. 2009-01-14 00:07:17 -05:00
Kris Maglione ca81a0188b Fix MOW bug 2009-01-13 19:23:35 -05:00
Kris Maglione 2d58d84de5 Fix b34838e4b6fc54d42eebfcb4f20c26ee8e4db473 2009-01-12 13:54:10 -05:00